Weather History for Clarksville, TN

Change the Weather History Date:

Friday, January 18, 2013

  Actual Average Record
Temperature  
Mean Temperature 36 °F -  
Max Temperature 49 °F - 72 °F (1974)
Min Temperature 22 °F - -9 °F (1984)
Degree Days  
Heating Degree Days 29    
Month to date heating degree days 449  
Since 1 July heating degree days 1889  
Cooling Degree Days 0    
Month to date cooling degree days 2  
Moisture  
Dew Point 24 °F    
Average Humidity 68    
Maximum Humidity 96    
Minimum Humidity 39    
Precipitation  
Precipitation 0.00 in - 1.43 in (1950)
Month to date precipitation 3.48  
Sea Level Pressure  
Sea Level Pressure 30.47 in    
Wind  
Wind Speed 4 mph (SSW)    
Max Wind Speed 14 mph    
Max Gust Speed 16 mph    
Visibility 10 miles    
Events      
T = Trace of Precipitation, MM = Missing Value Source: NWS Daily Summary

Daily Weather History Graph

Daily Weather History Graph

Search for Another Location

Airport:

Trip Planner

Search our weather history database for the weather conditions in past years. The results will help you decide how hot, cold, wet, or windy it might be!

Date:

Astronomy

Jan. 18, 2013 Rise Set
Actual Time 6:59 AM CST 5:00 PM CST
Civil Twilight 6:31 AM CST 5:28 PM CST
Nautical Twilight 6:00 AM CST 6:00 PM CST
Astronomical Twilight 5:29 AM CST 6:31 PM CST
Moon 10:51 AM CST (1/18) No Moon Set
Length of Visible Light 10h 56m
Length of Day
10h 01m
Waxing Crescent, 47% of the Moon is Illuminated
Jan 18
Waxing Crescent
Jan 18
First Quarter
Jan 26
Full
Feb 3
Last Quarter
Feb 10
New

Hourly Weather History & Observations

Time (CST) Temp. Windchill Dew Point Humidity Pressure Visibility Wind Dir Wind Speed Gust Speed Precip Events Conditions
12:52 AM 30.0 °F 26.5 °F 24.1 °F 79% 30.49 in 10.0 mi NW 3.5 mph - N/A   Clear
1:52 AM 28.0 °F 24.2 °F 24.1 °F 85% 30.51 in 10.0 mi North 3.5 mph - N/A   Clear
2:52 AM 28.0 °F 22.8 °F 23.0 °F 81% 30.51 in 10.0 mi NNW 4.6 mph - N/A   Clear
3:52 AM 25.0 °F - 21.0 °F 85% 30.50 in 10.0 mi Calm Calm - N/A   Clear
4:52 AM 26.1 °F - 21.9 °F 84% 30.50 in 10.0 mi Calm Calm - N/A   Clear
5:52 AM 24.1 °F - 21.9 °F 91% 30.52 in 8.0 mi Calm Calm - N/A   Clear
6:52 AM 23.0 °F 17.0 °F 21.0 °F 92% 30.54 in 8.0 mi WSW 4.6 mph - N/A   Clear
7:52 AM 25.0 °F 18.1 °F 23.0 °F 92% 30.55 in 8.0 mi WSW 5.8 mph - N/A   Clear
8:52 AM 30.9 °F - 26.1 °F 82% 30.58 in 10.0 mi Calm Calm - N/A   Clear
9:52 AM 34.0 °F - 26.1 °F 73% 30.59 in 10.0 mi Calm Calm - N/A   Clear
10:52 AM 37.9 °F 33.5 °F 27.0 °F 65% 30.56 in 10.0 mi Variable 5.8 mph - N/A   Clear
11:52 AM 41.0 °F 35.8 °F 27.0 °F 57% 30.53 in 10.0 mi SSW 8.1 mph - N/A   Clear
12:52 PM 45.0 °F 41.8 °F 28.0 °F 52% 30.49 in 10.0 mi SSW 5.8 mph - N/A   Clear
1:52 PM 46.9 °F - 27.0 °F 46% 30.47 in 10.0 mi South 9.2 mph - N/A   Clear
2:52 PM 48.9 °F - 25.0 °F 39% 30.44 in 10.0 mi SW 8.1 mph - N/A   Clear
3:52 PM 48.9 °F - 25.0 °F 39% 30.43 in 10.0 mi South 11.5 mph - N/A   Clear
4:52 PM 45.0 °F 40.6 °F 23.0 °F 42% 30.42 in 10.0 mi South 8.1 mph - N/A   Clear
5:52 PM 44.1 °F 42.5 °F 21.9 °F 42% 30.41 in 10.0 mi South 3.5 mph - N/A   Clear
6:52 PM 42.1 °F 39.2 °F 23.0 °F 47% 30.40 in 10.0 mi South 4.6 mph - N/A   Clear
7:52 PM 39.0 °F 36.8 °F 24.1 °F 55% 30.39 in 10.0 mi SSE 3.5 mph - N/A   Clear
8:52 PM 37.9 °F 35.5 °F 24.1 °F 57% 30.39 in 10.0 mi South 3.5 mph - N/A   Clear
9:52 PM 37.0 °F 34.5 °F 24.1 °F 59% 30.38 in 10.0 mi SSE 3.5 mph - N/A   Clear
10:52 PM 34.0 °F 29.8 °F 24.1 °F 67% 30.37 in 10.0 mi South 4.6 mph - N/A   Clear
11:52 PM 36.0 °F 32.1 °F 25.0 °F 64% 30.35 in 10.0 mi South 4.6 mph - N/A   Clear